Simultaneous Nadir Overpasses (SNOs) Predictions

Prediction of SNOs between NOAA-15 and METOP-C Satellite Orbit:

Table of predicted SNOs for the next 14.0 days since TLE Epoch: 10/21/2023
Index Date (NOAA-15) Time (NOAA-15) Lat,Lon (NOAA-15) SZA (NOAA-15 ) Date (METOP-C) Time (METOP-C) Lat,Lon (METOP-C) SZA (METOP-C ) Distance(km) Time Diff (sec)
1 10/28/2023 01:38:42 -81.07, 13.92 83.70 10/28/2023 01:37:30 -81.07, 14.03 83.71 2.01 72
2 10/28/2023 02:29:11 81.06,-178.67 96.32 10/28/2023 02:28:10 81.07,-178.78 96.29 1.95 61
3 10/28/2023 03:19:43 -81.07, -11.49 83.68 10/28/2023 03:18:52 -81.07, -11.46 83.71 0.97 51
4 10/28/2023 04:10:12 81.07, 155.93 96.34 10/28/2023 04:09:31 81.07, 156.10 96.34 2.85 41
5 10/28/2023 05:00:43 -81.06, -36.52 83.64 10/28/2023 05:00:13 -81.07, -36.58 83.66 1.59 30
6 10/28/2023 05:51:13 81.08, 130.54 96.35 10/28/2023 05:50:53 81.07, 130.60 96.34 1.62 20
7 10/28/2023 06:41:44 -81.07, -61.92 83.63 10/28/2023 06:41:35 -81.07, -62.08 83.65 2.66 9
8 10/28/2023 07:32:13 81.07, 105.51 96.39 10/28/2023 07:32:14 81.08, 105.48 96.39 1.02 1
9 10/28/2023 08:22:45 -81.08, -87.33 83.62 10/28/2023 08:22:56 -81.08, -87.20 83.60 2.22 11
10 10/28/2023 09:13:14 81.07, 80.11 96.40 10/28/2023 09:13:36 81.07, 79.99 96.40 2.10 22
11 10/28/2023 10:03:46 -81.08,-112.73 83.60 10/28/2023 10:04:18 -81.07,-112.69 83.60 1.65 32
12 10/28/2023 10:54:15 81.08, 54.71 96.42 10/28/2023 10:54:57 81.08, 54.87 96.45 2.75 42
13 10/28/2023 11:44:46 -81.07,-137.76 83.57 10/28/2023 11:45:39 -81.08,-137.81 83.54 0.97 53
14 10/28/2023 12:35:16 81.09, 29.31 96.43 10/28/2023 12:36:19 81.07, 29.37 96.45 1.98 63



Historial Predications of SNOs between NOAA-15 and METOP-C
